Location: Unspecified
(0.0000°N, 0.0000°E)
Time: 11:19:15
(UTC+00:00)

Explorer 11/Cluster Stage 4 - Pass Details

Date: 20 November 2019
Orbit: 467 x 1259 km, 28.8° (Epoch: 13 December)

Event Time Altitude Azimuth Distance (km) Brightness Sun altitude
Rises 14:10:28 0° 224° (SW) 2,508 9.8 49.4°
Reaches altitude 10° 14:12:49 10° 212° (SSW) 1,610 9.0 48.9°
Maximum altitude 14:16:01 30° 149° (SSE) 869 7.2 48.2°
Drops below altitude 10° 14:19:20 10° 87° (E) 1,672 8.0 47.5°
Sets 14:21:50 0° 76° (ENE) 2,624 8.9 47.0°
